Погода в Адамовке

Украина / Днепропетровская область     48°19′19″N   34°12′47″E
темп.,
°C
ветер,
м/с
пор.,
м/с
влажн.,
%
обл.,
%
осадки,
мм/ч
давл.,
гПа
погр.,
м
15 апреля, чт
чт1500:00+8ююв3880100 0.0 1014207
03:00+8юв488295 0.0 1014342
06:00+7юв3694100 0.0 1013246
09:00+8ююв488999 0.1 1013407
12:00+9ююв588871 0.2 1013665
15:00+12ю685995 0.7 10121505
18:00+11ююз566464 0.2 10121065
21:00+8ю588395 0.5 1013863
16 апреля, пт
пт1600:00+7ю5893100 0.5 1012519
03:00+7ююз5893100 0.8 1012472
06:00+7ююз5894100 0.1 1013428
09:00+7ююз5892100 0.1 1014524
12:00+8ююз5987100 0.3 1015681
15:00+11юз7960100 0.9 10151427
18:00+10зюз566546 0.6 1016986
21:00+4зюз478885 0.6 1018385
17 апреля, сб
сб1700:00+4юз4683100 0.1 1019869
03:00+4зюз4592100 0.2 1019563
06:00+4зюз3595100 0.1 1020454
09:00+6зюз2390100 0.1 1021501
12:00+8з3374100 0.1 1022910
15:00+10з346795 0.3 10221032
18:00+9зсз2370100 0.1 1022608
21:00+8зсз2378100 0.2 102258
18 апреля, вс
вс1800:00+7ссз358345 0.0 1022136
03:00+5ссв228678 0.0 102253
06:00+4св2290100 0.0 102229
09:00+9св2370100 0.0 1022389
12:00+12всв335369 0.0 10211322
15:00+15всв3444100 0.0 10211675
18:00+14всв344895 0.0 10211585
21:00+12всв4863100 0.0 1022265
19 апреля, пн
пн1900:00+10всв487238 0.0 1023229
03:00+7всв478225 0.0 1022129
06:00+6всв488615 0.0 1023181
09:00+10всв6970100 0.0 1023572
12:00+14в7854100 0.0 10221234
15:00+16в7848100 0.0 10211683
18:00+14в7955100 0.0 10201324
21:00+11в81465100 0.0 1019779